AG4OX Weather Reports


Display with metric or nautical units.
time (UTC)temp
F
wind
direction
speed
MPH
gust
MPH
rain 1hr
in
rain 24hr
in
rain mn
in
humidity
%
barometer
mb
20260903032006 79 205 1.0 1.0 0.00 0.00 0.00 77 1013.5
20260903031005 79 205 0.0 1.0 0.00 0.00 0.00 79 1013.3
20260903025006 79 65 0.0 0.0 0.00 0.00 0.00 81 1013.2
20260903023006 79 65 0.0 2.0 0.00 0.00 0.00 80 1013.1
20260903022005 79 82 1.0 2.0 0.00 0.00 0.00 81 1013.1
20260903021005 79 128 0.0 2.0 0.00 0.00 0.00 81 1013.1
20260903020005 79 128 0.0 2.0 0.00 0.00 0.00 82 1013.1
20260903015006 79 74 0.0 0.0 0.00 0.00 0.00 83 1013.1
20260903014005 79 74 0.0 0.0 0.00 0.00 0.00 83 1013.0
20260903012007 79 74 0.0 1.0 0.00 0.00 0.00 83 1012.8
20260903011006 80 74 0.0 2.0 0.00 0.00 0.00 83 1012.8
20260903010005 80 74 1.0 3.0 0.00 0.00 0.00 83 1012.6
20260903004007 80 91 2.0 3.0 0.00 0.00 0.00 84 1012.4
20260903003006 80 86 2.0 3.0 0.00 0.00 0.00 84 1012.4
20260903002005 80 83 1.0 3.0 0.00 0.00 0.00 84 1012.2
20260903001005 81 78 1.0 3.0 0.00 0.00 0.00 84 1012.1
20260902234006 82 92 2.0 3.0 0.00 0.00 0.00 83 1012.2
20260902233005 82 81 2.0 5.0 0.00 0.00 0.00 83 1012.0
20260902232007 82 96 2.0 5.0 0.00 0.00 0.00 82 1011.9
20260902230005 83 83 3.0 7.0 0.00 0.00 0.00 81 1011.7
20260902225006 83 91 2.0 7.0 0.00 0.00 0.00 81 1011.7
20260902224007 83 86 2.0 7.0 0.00 0.00 0.00 80 1011.6
20260902223005 83 74 4.0 7.0 0.00 0.00 0.00 79 1011.5
20260902222005 84 63 2.0 8.0 0.00 0.00 0.00 79 1011.6
20260902220006 84 61 4.0 7.0 0.00 0.00 0.00 78 1011.6
20260902215005 85 69 2.0 6.0 0.00 0.00 0.00 76 1012.0
20260902214006 85 51 3.0 7.0 0.00 0.00 0.00 76 1012.0
20260902213005 84 60 3.0 7.0 0.00 0.00 0.00 76 1011.9
20260902212006 85 99 5.0 7.0 0.00 0.00 0.00 76 1011.9
20260902211006 85 74 3.0 7.0 0.00 0.00 0.00 76 1011.7
20260902210005 85 94 5.0 6.0 0.00 0.00 0.00 75 1011.6
20260902205006 85 103 4.0 7.0 0.00 0.00 0.00 77 1011.6
20260902203005 84 77 4.0 7.0 0.00 0.00 0.00 78 1012.0
20260902202006 84 88 2.0 8.0 0.00 0.00 0.00 79 1011.9
20260902201006 84 93 4.0 10.0 0.00 0.00 0.00 79 1012.1
20260902200005 84 91 3.0 7.0 0.00 0.00 0.00 79 1012.1
20260902195005 84 91 6.0 10.0 0.00 0.00 0.00 80 1012.2
20260902194007 84 76 4.0 9.0 0.00 0.00 0.00 80 1012.3
20260902193006 84 74 5.0 8.0 0.00 0.00 0.00 80 1012.4
20260902192005 84 73 4.0 10.0 0.00 0.00 0.00 80 1012.5
20260902190005 84 90 3.0 7.0 0.00 0.00 0.00 81 1012.7
20260902184006 85 87 3.0 9.0 0.00 0.00 0.00 80 1012.9
20260902183005 85 83 5.0 9.0 0.00 0.00 0.00 78 1012.8
20260902182005 85 62 3.0 7.0 0.00 0.00 0.00 77 1013.0
20260902181005 85 91 5.0 7.0 0.00 0.00 0.00 76 1013.0
20260902180007 85 78 3.0 7.0 0.00 0.00 0.00 77 1013.1
20260902175006 85 100 4.0 6.0 0.00 0.00 0.00 77 1013.1
20260902174006 86 91 3.0 7.0 0.00 0.00 0.00 78 1013.3
20260902173006 86 72 3.0 7.0 0.00 0.00 0.00 78 1013.2
20260902172006 87 104 3.0 7.0 0.00 0.00 0.00 77 1013.4
20260902171006 87 76 3.0 7.0 0.00 0.00 0.00 74 1013.6
20260902170005 87 110 2.0 6.0 0.00 0.00 0.00 73 1013.5
20260902165005 87 91 3.0 6.0 0.00 0.00 0.00 74 1013.8
20260902164005 88 83 3.0 6.0 0.00 0.00 0.00 71 1014.0
20260902163006 88 64 2.0 6.0 0.00 0.00 0.00 70 1014.0
20260902162005 89 120 2.0 5.0 0.00 0.00 0.00 68 1014.1
20260902160007 88 261 2.0 3.0 0.00 0.00 0.00 71 1014.3
20260902155005 87 301 2.0 3.0 0.00 0.00 0.00 71 1014.3
20260902154006 87 43 1.0 2.0 0.00 0.00 0.00 71 1014.5
20260902152005 86 86 2.0 3.0 0.00 0.00 0.00 72 1014.2
20260902151006 87 80 2.0 3.0 0.00 0.00 0.00 73 1014.2
20260902150004 87 98 2.0 3.0 0.00 0.00 0.00 75 1014.2
20260902145006 88 95 2.0 3.0 0.00 0.00 0.00 73 1014.3
20260902142005 86 72 0.0 3.0 0.00 0.00 0.00 76 1014.3
20260902140005 85 88 1.0 3.0 0.00 0.00 0.00 80 1014.3
20260902135005 84 299 2.0 5.0 0.00 0.00 0.00 80 1014.1
20260902134005 83 253 2.0 3.0 0.00 0.00 0.00 80 1014.0
20260902133006 84 35 0.0 2.0 0.00 0.00 0.00 82 1014.2
20260902132006 82 13 0.0 2.0 0.00 0.00 0.00 81 1014.2
20260902131006 80 289 2.0 3.0 0.00 0.00 0.00 80 1014.2
20260902130006 80 294 2.0 3.0 0.00 0.00 0.00 77 1014.1
20260902125006 79 275 1.0 3.0 0.00 0.00 0.00 73 1014.2
20260902124006 78 306 1.0 3.0 0.00 0.00 0.00 66 1014.1
20260902123005 78 293 2.0 3.0 0.00 0.00 0.00 65 1014.1
20260902121005 76 303 1.0 2.0 0.00 0.00 0.00 66 1014.0
20260902120006 76 324 0.0 1.0 0.00 0.00 0.00 66 1013.9
20260902115007 75 324 0.0 1.0 0.00 0.00 0.00 67 1013.7
20260902114006 75 324 0.0 0.0 0.00 0.00 0.00 67 1013.7
20260902112006 75 323 0.0 1.0 0.00 0.00 0.00 67 1013.4
20260902111005 75 327 0.0 0.0 0.00 0.00 0.00 68 1013.5
20260902110007 75 327 0.0 0.0 0.00 0.00 0.00 68 1013.3
20260902105007 75 327 0.0 0.0 0.00 0.00 0.00 68 1013.2
20260902104005 75 327 0.0 0.0 0.00 0.00 0.00 68 1013.2
20260902102006 75 327 0.0 0.0 0.00 0.00 0.00 68 1013.0
20260902101005 75 327 0.0 1.0 0.00 0.00 0.00 68 1012.8
20260902100004 75 327 0.0 0.0 0.00 0.00 0.00 68 1012.9
20260902095005 75 327 0.0 1.0 0.00 0.00 0.00 68 1013.2
20260902094007 76 327 0.0 1.0 0.00 0.00 0.00 67 1013.0
20260902093005 76 327 0.0 0.0 0.00 0.00 0.00 68 1012.8
20260902092006 76 327 0.0 2.0 0.00 0.00 0.00 68 1013.0
20260902091005 76 327 1.0 2.0 0.00 0.00 0.00 68 1013.0
20260902090005 76 327 1.0 2.0 0.00 0.00 0.00 67 1012.9
20260902085005 76 307 0.0 2.0 0.00 0.00 0.00 68 1012.7
20260902084005 76 307 1.0 2.0 0.00 0.00 0.00 68 1012.7
20260902083006 76 313 1.0 2.0 0.00 0.00 0.00 68 1012.6
20260902082005 76 313 1.0 3.0 0.00 0.00 0.00 68 1012.6
20260902081005 76 330 1.0 3.0 0.00 0.00 0.00 67 1012.6
20260902080005 76 313 0.0 1.0 0.00 0.00 0.00 67 1012.7
20260902074005 76 313 0.0 1.0 0.00 0.00 0.00 67 1012.6
20260902073005 76 313 0.0 3.0 0.00 0.00 0.00 67 1012.8
20260902072006 76 314 0.0 2.0 0.00 0.00 0.00 67 1012.7
20260902070007 76 314 1.0 2.0 0.00 0.00 0.00 67 1012.8
20260902065006 76 200 0.0 0.0 0.00 0.00 0.00 67 1013.0
20260902064006 76 200 0.0 1.0 0.00 0.00 0.00 67 1012.9
20260902063006 76 200 0.0 1.0 0.00 0.00 0.00 67 1012.9
20260902061005 76 200 0.0 1.0 0.00 0.00 0.00 67 1013.2
20260902060005 76 200 0.0 1.0 0.00 0.00 0.00 68 1013.3
20260902055005 76 200 0.0 1.0 0.00 0.00 0.00 68 1013.3
20260902054005 75 200 0.0 0.0 0.00 0.00 0.00 70 1013.3
20260902053005 75 200 0.0 2.0 0.00 0.00 0.00 71 1013.4
20260902052006 76 159 1.0 2.0 0.00 0.00 0.00 71 1013.4
20260902051006 76 142 0.0 1.0 0.00 0.00 0.00 71 1013.4
20260902050007 76 142 0.0 1.0 0.00 0.00 0.00 71 1013.4
20260902045005 76 142 0.0 1.0 0.00 0.00 0.00 71 1013.3
20260902044006 76 142 0.0 1.0 0.00 0.00 0.00 71 1013.3
20260902040005 76 142 0.0 1.0 0.00 0.00 0.00 72 1013.4
20260902035005 76 142 0.0 1.0 0.00 0.00 0.00 74 1013.5
20260902034006 77 142 0.0 0.0 0.00 0.00 0.00 74 1013.6